Showing default

LONGJIANG 3, 56874

Orbit data source: Space-Track

LONGJIANG 3, 56874 is a payload satellite owned by Harbin (CN) in LEO that was launched on Fri, 09 Jun 2023 UTC via a KUAIZHOU-1A launch vehicle from the Jiuquan Satellite Launch Center, China (JSC). Payload-class satellites include a variety of spacecraft equipped with specific instruments for various scientific and technological missions. These include communications satellites like Starlink; space stations such as the ISS; scientific satellites like the Hubble; Earth observation satellites from companies like Planet Labs, Umbra, and HawkEye 360; GPS; miniature CubeSats for education and research; and military/defense satellites.

Loading next visibility...
Identifier
56874, 2023-082A
Orbit
LEO
Country
Flag of CNCN / PRC
Related business
Manufacturer
HITSAT
Mission
Operational Amateur Communications
Bus & Motor
SATWARE-CS200, Unknown motor
Mass
~120 kg wet, ~120 kg dry
Launch date (UTC)
2023-06-09 (2 years ago)
Launch vehicle
KUAIZHOU-1A
Launch site
Jiuquan Satellite Launch Center, China (JSC)
Object type
Payload
Rocket body
Debris
Shape & HBR
Box, 0.8 m
Radar Cross Section
2.000 m², Medium (>0.1 m² and < 1m²)

Expand to show TLE details & history
Last TLE update: 6 hours ago

TLE from 6 hours ago
0 LONGJIANG 3
1 56874U 23082A   25295.21844672  .00022548  00000-0  74861-3 0  9992
2 56874  49.1099 184.4804 0005834  63.0111 297.1429 15.31043183132767
Epoch: 2025-10-22T05:14Z
TLE epoch observation values (Epoch: 2025-10-22T05:14:33.796Z)
Latitude
-0.00008°
Longitude
74.94431°
Altitude
471.334 km
Speed
7.633 km/s
True Right ascension
12h 17m 55s
True Declination
0° 00' 00"
Sunlit
Object was in daylight at epoch
Visualization orbit readout
Latitude
Unknown
Longitude
Unknown
Altitude
Unknown
Speed
Unknown
Apparent Right ascension
Unknown
Apparent Declination
Unknown
Sunlit
N/A
Visualization observer readout
Local Sidereal Time
06:37:14
Azimuth
Unknown
Elevation
Unknown
Doppler factor
Unknown
Orbital elements
Apogee altitude
477.618 km
Perigee altitude
469.623 km
Semi-major axis
6,851.758 km
Eccentricity
0.00058
Inclination
49.1099°
RAAN
184.4804°
Arg. of periapsis
63.0111°
True anomaly
297.08339°
Mean anomaly
297.1429°
Eccentric anomaly
297.11315°
Mean motion
3.82684 °/min
Orbital period
94.07 mins
BSTAR
0.00074861
Loading maneuver chart data...
Computing Atmospheric mass density...
Loading historical data...
Loading historical data...
Loading historical data...
Loading historical data...
Loading historical data...
Loading historical data...
Loading historical data...
Other satellites on launch #82 in the year 2023 (2023-06-09 UTC)

Documentation

Showing up to 5 results
|